BEIDOU-3 M23 (C45)

Last updated on Jan. 17, 2020, 4:32 a.m. UTC

1 44542U 19061A   20016.14469128  .00000011  00000-0  10000-3 0  9996
2 44542  54.9517 262.1993 0008682 328.4383 186.1578  1.86230853  2137
UTC
Height (km)
Latitude
Longitude
Inclination
Orbital Period
UTC large
Height (km)
Speed (km/s)
/
Latitude / Longitude
Inclination (degrees)
Orbital Period (minutes)
Azimuth
Elevation
Range (km)
Doppler Factor
iOS Compass Heading
iOS Angle

Next 30 passes for location: Hong Kong

Rise time Rise Azimuth (degrees) Set time Set Azimuth (degrees) Duration Max altitude (degrees)

No matching passes for this satellites